ANA212 EGLL-RJTT

Flight info

Callsign ANA212
Flight time N/A
Altitude 37000
Route DET L6 DVR L9 KONAN UL607 MATUG DCT GUBAX DCT KOMIB L984 SULUS Z650 VEMUT DCT PEPIK DCT BERVA DCT ERGOM DCT BUDOP DCT DVA DCT BULEN DCT RIXEN UA17 YAVRU UA4 SIV UW706 TBN UN61 NOLGA DCT BARAD DCT SUBUT T916 BALUN/K0898F370 T916 MIHOS N147 GENGA DCT SARIN/K0898S1130 A368 FKG W188 LIKMI W270 DKO W69 HUR B339 LADIX W34 VAPGU W100 ORAVA W201 UNSEK A326 DONVO G597 AGAVO/N0485F370 Y644 EGOBA Y697 LANAT Y71 XAC
Aircraft B77W/H-SDE1E2E3FGHIJ2J3J4J5M1RWXY/LB1D1

Departure

Time 2026-04-30 18:45
Airport London Heathrow Airport (EGLL)

Arrival

Time N/A
Airport Tokyo Haneda International Airport (RJTT)
Time Latitude Longitude Altitude Speed Heading
2026-04-30 18:03 51.47188 -0.44194 90 ft 0 kts 268°
2026-04-30 18:20 51.47188 -0.44190 90 ft 2 kts 268°
2026-04-30 18:20 51.47189 -0.44149 90 ft 4 kts 270°
2026-04-30 18:21 51.47186 -0.44106 90 ft 3 kts 272°
2026-04-30 18:21 51.47192 -0.44073 91 ft 4 kts 227°
2026-04-30 18:21 51.47204 -0.44057 93 ft 4 kts 188°
2026-04-30 18:21 51.47234 -0.44061 92 ft 1 kts 178°
2026-04-30 18:22 51.47238 -0.44061 90 ft 0 kts 178°
2026-04-30 18:29 51.47231 -0.44061 94 ft 3 kts 179°
2026-04-30 18:30 51.47127 -0.44061 93 ft 9 kts 178°
2026-04-30 18:30 51.47004 -0.44056 93 ft 9 kts 180°
2026-04-30 18:31 51.46943 -0.44057 93 ft 9 kts 181°
2026-04-30 18:31 51.46821 -0.44056 93 ft 9 kts 180°
2026-04-30 18:32 51.46699 -0.44070 89 ft 10 kts 203°
2026-04-30 18:32 51.46668 -0.44168 88 ft 11 kts 262°
2026-04-30 18:32 51.46663 -0.44405 91 ft 11 kts 272°
2026-04-30 18:33 51.46666 -0.44523 92 ft 11 kts 270°
2026-04-30 18:33 51.46661 -0.44761 94 ft 11 kts 269°
2026-04-30 18:33 51.46662 -0.44881 94 ft 11 kts 271°
2026-04-30 18:34 51.46665 -0.45005 93 ft 11 kts 272°
2026-04-30 18:34 51.46663 -0.45257 91 ft 11 kts 273°
2026-04-30 18:34 51.46666 -0.45388 88 ft 12 kts 269°
2026-04-30 18:35 51.46661 -0.45525 89 ft 13 kts 267°
2026-04-30 18:35 51.46658 -0.45666 89 ft 13 kts 269°
2026-04-30 18:35 51.46656 -0.45810 89 ft 13 kts 269°
2026-04-30 18:36 51.46654 -0.46099 88 ft 13 kts 271°
2026-04-30 18:36 51.46642 -0.46243 93 ft 13 kts 264°
2026-04-30 18:36 51.46658 -0.46533 96 ft 13 kts 270°
2026-04-30 18:37 51.46657 -0.46679 96 ft 13 kts 270°
2026-04-30 18:37 51.46668 -0.46824 92 ft 13 kts 272°
2026-04-30 18:37 51.46659 -0.46974 95 ft 14 kts 265°
2026-04-30 18:37 51.46656 -0.47127 92 ft 14 kts 270°
2026-04-30 18:38 51.46660 -0.47289 90 ft 15 kts 272°
2026-04-30 18:38 51.46660 -0.47454 90 ft 15 kts 267°
2026-04-30 18:38 51.46655 -0.47618 88 ft 15 kts 268°
2026-04-30 18:38 51.46652 -0.47784 86 ft 15 kts 268°
2026-04-30 18:39 51.46656 -0.47949 91 ft 15 kts 276°
2026-04-30 18:39 51.46657 -0.48115 94 ft 15 kts 268°
2026-04-30 18:39 51.46655 -0.48241 94 ft 9 kts 269°
2026-04-30 18:39 51.46655 -0.48342 95 ft 9 kts 270°
2026-04-30 18:40 51.46640 -0.48436 96 ft 8 kts 227°
2026-04-30 18:40 51.46604 -0.48457 97 ft 0 kts 197°
2026-04-30 18:42 51.46555 -0.48471 96 ft 12 kts 182°
2026-04-30 18:45 51.44371 -0.37027 2366 ft 224 kts 111°
2026-04-30 18:45 51.44023 -0.34553 2459 ft 233 kts 105°
2026-04-30 18:45 51.43563 -0.32026 2779 ft 237 kts 110°
2026-04-30 18:46 51.43021 -0.29526 3222 ft 238 kts 111°
2026-04-30 18:46 51.42523 -0.26997 3587 ft 240 kts 106°
2026-04-30 18:46 51.42176 -0.24357 3924 ft 245 kts 105°
2026-04-30 18:46 51.41830 -0.21643 4206 ft 251 kts 105°
2026-04-30 18:47 51.41464 -0.18869 4621 ft 258 kts 106°
2026-04-30 18:47 51.41080 -0.16028 5261 ft 264 kts 105°
2026-04-30 18:47 51.40690 -0.13152 5874 ft 266 kts 105°
2026-04-30 18:47 51.40289 -0.10236 5987 ft 270 kts 105°
2026-04-30 18:48 51.39886 -0.07310 5988 ft 267 kts 105°
2026-04-30 18:48 51.39499 -0.04509 5978 ft 265 kts 105°
2026-04-30 18:48 51.39102 -0.01639 5984 ft 264 kts 105°
2026-04-30 18:48 51.38703 0.01232 6020 ft 265 kts 105°
2026-04-30 18:49 51.38301 0.04117 6036 ft 267 kts 106°
2026-04-30 18:49 51.37894 0.07025 6019 ft 268 kts 105°
2026-04-30 18:49 51.37487 0.09938 6039 ft 268 kts 105°
2026-04-30 18:49 51.37079 0.12852 6025 ft 269 kts 106°
2026-04-30 18:50 51.36669 0.15772 6021 ft 269 kts 106°
2026-04-30 18:50 51.36258 0.18690 6016 ft 269 kts 105°
2026-04-30 18:50 51.35852 0.21568 6035 ft 268 kts 106°
2026-04-30 18:50 51.35442 0.24470 6008 ft 267 kts 105°
2026-04-30 18:51 51.35032 0.27364 6013 ft 265 kts 105°
2026-04-30 18:51 51.34625 0.30234 6030 ft 264 kts 106°
2026-04-30 18:51 51.34218 0.33096 6008 ft 264 kts 105°
2026-04-30 18:51 51.33811 0.35962 6009 ft 264 kts 105°
2026-04-30 18:52 51.33405 0.38817 6011 ft 263 kts 106°
2026-04-30 18:52 51.32997 0.41664 6026 ft 263 kts 106°
2026-04-30 18:52 51.32587 0.44528 5968 ft 264 kts 105°
2026-04-30 18:52 51.32178 0.47385 5994 ft 264 kts 106°
2026-04-30 18:53 51.31765 0.50259 5984 ft 265 kts 106°
2026-04-30 18:53 51.31349 0.53141 5987 ft 266 kts 106°
2026-04-30 18:53 51.30932 0.56028 5988 ft 267 kts 106°
2026-04-30 18:53 51.30512 0.58918 5987 ft 267 kts 106°
2026-04-30 18:54 51.30055 0.61797 6098 ft 267 kts 108°
2026-04-30 18:54 51.29538 0.64637 6796 ft 267 kts 109°
2026-04-30 18:54 51.29010 0.67481 7459 ft 268 kts 109°
2026-04-30 18:54 51.28478 0.70354 8129 ft 270 kts 109°
2026-04-30 18:55 51.27945 0.73238 8797 ft 272 kts 108°
2026-04-30 18:55 51.26870 0.79076 10115 ft 276 kts 108°
2026-04-30 18:55 51.26323 0.82043 10476 ft 290 kts 108°
2026-04-30 18:56 51.25095 0.88687 10801 ft 333 kts 108°
2026-04-30 18:56 51.24421 0.92338 11011 ft 352 kts 108°
2026-04-30 18:56 51.23719 0.96144 11535 ft 362 kts 108°
2026-04-30 18:57 51.22275 1.03953 13043 ft 370 kts 108°
2026-04-30 18:57 51.21544 1.07900 13836 ft 374 kts 108°
2026-04-30 18:57 51.20799 1.11904 14546 ft 378 kts 108°
2026-04-30 18:58 51.19279 1.20044 15918 ft 387 kts 108°
2026-04-30 18:58 51.18502 1.24193 16576 ft 392 kts 108°
2026-04-30 18:58 51.17715 1.28385 17227 ft 397 kts 108°
2026-04-30 18:59 51.16285 1.37001 18532 ft 408 kts 101°
2026-04-30 19:00 51.15571 1.50690 20435 ft 416 kts 96°
2026-04-30 19:00 51.15358 1.55296 21071 ft 418 kts 96°
2026-04-30 19:00 51.14907 1.64596 22255 ft 424 kts 96°
2026-04-30 19:01 51.14439 1.73962 23425 ft 429 kts 96°
2026-04-30 19:01 51.14198 1.78721 23962 ft 432 kts 96°
2026-04-30 19:02 51.13708 1.88312 24897 ft 437 kts 96°
2026-04-30 19:02 51.13205 1.98007 25791 ft 442 kts 96°
2026-04-30 19:03 51.12686 2.07813 26650 ft 447 kts 96°
2026-04-30 19:03 51.12154 2.17748 27475 ft 453 kts 97°
2026-04-30 19:04 51.11609 2.27775 28273 ft 457 kts 97°
2026-04-30 19:04 51.11050 2.37901 29006 ft 462 kts 97°
2026-04-30 19:05 51.10476 2.48133 29685 ft 466 kts 97°
2026-04-30 19:05 51.09774 2.58402 30334 ft 467 kts 102°
2026-04-30 19:06 51.08699 2.66782 30968 ft 464 kts 103°
2026-04-30 19:06 51.08027 2.71799 31328 ft 463 kts 103°
2026-04-30 19:06 51.06697 2.81807 31994 ft 462 kts 103°
2026-04-30 19:07 51.05391 2.91804 32532 ft 462 kts 103°
2026-04-30 19:07 51.04742 2.96803 32824 ft 462 kts 103°
2026-04-30 19:08 51.03444 3.06772 33489 ft 459 kts 103°
2026-04-30 19:08 51.02146 3.16676 34052 ft 458 kts 103°
2026-04-30 19:08 51.01492 3.21631 34302 ft 457 kts 103°
2026-04-30 19:09 51.00188 3.31471 34828 ft 454 kts 103°
2026-04-30 19:09 50.99540 3.36325 34993 ft 455 kts 103°
2026-04-30 19:09 50.98875 3.41300 35141 ft 457 kts 103°
2026-04-30 19:10 50.97553 3.51129 35374 ft 460 kts 103°
2026-04-30 19:10 50.96206 3.61075 35597 ft 463 kts 103°
2026-04-30 19:11 50.95526 3.66073 35704 ft 464 kts 103°
2026-04-30 19:11 50.94157 3.76077 35900 ft 466 kts 103°
2026-04-30 19:11 50.93466 3.81104 36094 ft 465 kts 103°
2026-04-30 19:12 50.92776 3.86108 36218 ft 465 kts 103°
2026-04-30 19:12 50.91383 3.96153 36335 ft 468 kts 103°
2026-04-30 19:13 50.88550 4.16381 36676 ft 470 kts 103°
2026-04-30 19:14 50.87128 4.26426 36810 ft 471 kts 103°
2026-04-30 19:14 50.85682 4.36582 36887 ft 473 kts 103°
2026-04-30 19:15 50.84222 4.46756 37003 ft 475 kts 103°
2026-04-30 19:15 50.82752 4.56941 37116 ft 475 kts 103°
2026-04-30 19:15 50.82014 4.62032 37213 ft 475 kts 103°
2026-04-30 19:16 50.80530 4.72203 37273 ft 474 kts 103°
2026-04-30 19:17 50.78292 4.87431 37277 ft 475 kts 103°
2026-04-30 19:17 50.76029 5.02672 37272 ft 476 kts 103°
2026-04-30 19:18 50.73741 5.17934 37292 ft 476 kts 103°
2026-04-30 19:19 50.72203 5.28108 37290 ft 477 kts 103°
2026-04-30 19:19 50.69879 5.43371 37293 ft 477 kts 103°
2026-04-30 19:20 50.68318 5.53534 37293 ft 477 kts 103°
2026-04-30 19:21 50.65965 5.68737 37291 ft 478 kts 103°
2026-04-30 19:22 50.62783 5.89078 37290 ft 478 kts 103°
2026-04-30 19:23 50.57942 6.19538 37294 ft 478 kts 103°
2026-04-30 19:24 50.55489 6.34762 37303 ft 477 kts 103°
2026-04-30 19:25 50.51369 6.60029 37308 ft 477 kts 103°
2026-04-30 19:26 50.48045 6.80144 37326 ft 478 kts 103°
2026-04-30 19:27 50.45517 6.95279 37337 ft 478 kts 103°
2026-04-30 19:28 50.42966 7.10427 37333 ft 479 kts 103°
2026-04-30 19:29 50.39518 7.30687 37329 ft 479 kts 103°
2026-04-30 19:30 50.36054 7.50803 37343 ft 479 kts 103°
2026-04-30 19:31 50.32556 7.70895 37347 ft 478 kts 103°
2026-04-30 19:31 50.29913 7.85938 37361 ft 477 kts 103°
2026-04-30 19:32 50.28589 7.96062 37343 ft 473 kts 93°
2026-04-30 19:32 50.27970 8.06301 37352 ft 473 kts 93°
2026-04-30 19:33 50.27333 8.16537 37353 ft 473 kts 93°
2026-04-30 19:33 50.26663 8.26751 37355 ft 472 kts 94°
2026-04-30 19:34 50.25979 8.36887 37367 ft 472 kts 93°
2026-04-30 19:35 50.24944 8.51955 37359 ft 472 kts 93°
2026-04-30 19:35 50.24233 8.62148 37356 ft 471 kts 93°
2026-04-30 19:36 50.23514 8.72347 37342 ft 471 kts 93°
2026-04-30 19:36 50.22421 8.87591 37356 ft 471 kts 94°
2026-04-30 19:37 50.21682 8.97739 37360 ft 470 kts 94°
2026-04-30 19:37 50.20935 9.07885 37360 ft 470 kts 94°
2026-04-30 19:38 50.20182 9.17979 37360 ft 470 kts 94°
2026-04-30 19:38 50.19416 9.28120 37378 ft 470 kts 93°
2026-04-30 19:39 50.18647 9.38195 37357 ft 471 kts 94°
2026-04-30 19:39 50.17864 9.48337 37367 ft 471 kts 94°
2026-04-30 19:40 50.17070 9.58486 37371 ft 471 kts 94°
2026-04-30 19:40 50.16269 9.68626 37394 ft 471 kts 93°
2026-04-30 19:41 50.15457 9.78785 37374 ft 471 kts 93°
2026-04-30 19:41 50.14637 9.88917 37376 ft 470 kts 93°
2026-04-30 19:42 50.13812 9.99013 37382 ft 469 kts 94°
2026-04-30 19:42 50.12979 10.09098 37382 ft 469 kts 94°
2026-04-30 19:43 50.12137 10.19175 37390 ft 469 kts 93°
2026-04-30 19:44 50.10866 10.34191 37387 ft 467 kts 93°
2026-04-30 19:44 50.10007 10.44219 37390 ft 467 kts 93°
2026-04-30 19:45 50.09132 10.54242 37389 ft 467 kts 95°
2026-04-30 19:45 50.07653 10.64129 37417 ft 470 kts 100°
2026-04-30 19:46 50.05928 10.73973 37404 ft 471 kts 100°
2026-04-30 19:46 50.04215 10.83817 37393 ft 472 kts 100°
2026-04-30 19:47 50.02528 10.93629 37397 ft 472 kts 100°
2026-04-30 19:47 50.00837 11.03486 37416 ft 472 kts 99°
2026-04-30 19:48 49.99135 11.13364 37401 ft 473 kts 99°
2026-04-30 19:48 49.97424 11.23230 37407 ft 473 kts 100°
2026-04-30 19:49 49.95705 11.33078 37404 ft 473 kts 100°
2026-04-30 19:49 49.93105 11.47865 37430 ft 473 kts 99°
2026-04-30 19:50 49.91362 11.57714 37430 ft 473 kts 99°
2026-04-30 19:50 49.89612 11.67550 37427 ft 473 kts 99°
2026-04-30 19:51 49.87857 11.77356 37429 ft 472 kts 99°
2026-04-30 19:51 49.86097 11.87141 37481 ft 471 kts 99°
2026-04-30 19:52 49.84628 11.95263 37441 ft 471 kts 99°
2026-04-30 19:52 49.82857 12.05015 37455 ft 470 kts 99°
2026-04-30 19:53 49.81079 12.14750 37442 ft 470 kts 99°
2026-04-30 19:53 49.79290 12.24490 37425 ft 469 kts 100°
2026-04-30 19:54 49.77500 12.34189 37435 ft 469 kts 100°
2026-04-30 19:54 49.75698 12.43903 37427 ft 470 kts 100°
2026-04-30 19:55 49.73902 12.53532 37444 ft 470 kts 100°
2026-04-30 19:55 49.72077 12.63262 37429 ft 470 kts 100°
2026-04-30 19:56 49.70248 12.72966 37445 ft 471 kts 100°
2026-04-30 19:56 49.68408 12.82681 37415 ft 472 kts 100°
2026-04-30 19:57 49.66557 12.92395 37419 ft 471 kts 100°
2026-04-30 19:57 49.64697 13.02109 37420 ft 471 kts 100°
2026-04-30 19:58 49.62830 13.11816 37416 ft 472 kts 100°
2026-04-30 19:58 49.60953 13.21518 37428 ft 472 kts 100°
2026-04-30 19:59 49.59070 13.31206 37428 ft 472 kts 100°
2026-04-30 20:00 49.56256 13.45592 37424 ft 472 kts 100°
2026-04-30 20:00 49.54364 13.55205 37442 ft 472 kts 100°
2026-04-30 20:01 49.51524 13.69548 37413 ft 473 kts 100°
2026-04-30 20:01 49.49596 13.79217 37406 ft 473 kts 100°
2026-04-30 20:02 49.46737 13.93474 37408 ft 472 kts 101°
2026-04-30 20:03 49.43850 14.07769 37410 ft 473 kts 100°
2026-04-30 20:03 49.41892 14.17404 37402 ft 473 kts 100°
2026-04-30 20:04 49.39965 14.26845 37411 ft 472 kts 101°
2026-04-30 20:05 49.37036 14.41099 37458 ft 472 kts 100°
2026-04-30 20:05 49.34055 14.55513 37388 ft 472 kts 100°
2026-04-30 20:06 49.32064 14.65073 37411 ft 471 kts 101°
2026-04-30 20:06 49.30063 14.74640 37416 ft 470 kts 101°
2026-04-30 20:07 49.28061 14.84169 37430 ft 470 kts 101°
2026-04-30 20:08 49.25056 14.98390 37410 ft 470 kts 101°
2026-04-30 20:08 49.23035 15.07894 37406 ft 469 kts 101°
2026-04-30 20:09 49.21009 15.17379 37404 ft 469 kts 101°
2026-04-30 20:09 49.17961 15.31565 37404 ft 468 kts 101°
2026-04-30 20:10 49.14892 15.45751 37402 ft 468 kts 101°
2026-04-30 20:11 49.11809 15.59905 37394 ft 468 kts 101°
2026-04-30 20:11 49.09756 15.69279 37395 ft 469 kts 102°
2026-04-30 20:12 49.06626 15.83487 37397 ft 469 kts 102°
2026-04-30 20:13 49.04562 15.92800 37397 ft 470 kts 102°
2026-04-30 20:13 49.02464 16.02230 37408 ft 470 kts 102°
2026-04-30 20:14 49.00353 16.11675 37406 ft 472 kts 102°
2026-04-30 20:14 48.98246 16.21056 37410 ft 473 kts 102°
2026-04-30 20:15 48.96109 16.30529 37394 ft 474 kts 103°
2026-04-30 20:15 48.93959 16.40017 37400 ft 475 kts 103°
2026-04-30 20:16 48.91811 16.49458 37406 ft 476 kts 103°
2026-04-30 20:16 48.89636 16.58973 37400 ft 477 kts 103°
2026-04-30 20:17 48.87448 16.68500 37406 ft 477 kts 103°
2026-04-30 20:17 48.85252 16.78019 37419 ft 477 kts 103°
2026-04-30 20:18 48.83047 16.87540 37373 ft 479 kts 104°
2026-04-30 20:18 48.80834 16.97060 37402 ft 479 kts 104°
2026-04-30 20:19 48.78597 17.06539 37387 ft 481 kts 106°
2026-04-30 20:19 48.75616 17.15704 37390 ft 487 kts 113°
2026-04-30 20:20 48.72337 17.24716 37381 ft 488 kts 112°
2026-04-30 20:20 48.69102 17.33727 37396 ft 487 kts 112°
2026-04-30 20:21 48.65879 17.42751 37388 ft 487 kts 112°
2026-04-30 20:21 48.62522 17.51667 37385 ft 492 kts 118°
2026-04-30 20:22 48.58176 17.59761 37409 ft 501 kts 129°
2026-04-30 20:22 48.53215 17.67109 37389 ft 503 kts 130°
2026-04-30 20:23 48.48209 17.74487 37380 ft 503 kts 130°